When you browse on this site, cookies collect data to enhance your experience and personalize the content and advertising you see.
Visit our Privacy Policy to learn more. By continuing to use the site, you agree to this use of cookies and data.

Hourly Weather Northampton

Today, 13 August, Thursday

Time Temperature Precipitation Wind Pressure Humidity
00:00 +20°C° 0 mm 3 mps 752 mmHg 84%
01:00 +20°C° 0 mm 4 mps 751 mmHg 85%
02:00 +19°C° 0 mm 4 mps 751 mmHg 87%
03:00 +19°C° 0 mm 4 mps 751 mmHg 88%
04:00 +19°C° 0 mm 4 mps 751 mmHg 89%
05:00 +19°C° 0 mm 4 mps 751 mmHg 90%
06:00 +19°C° 0 mm 4 mps 751 mmHg 91%
07:00 +20°C° 0.2 mm 4 mps 751 mmHg 86%
08:00 +21°C° 0.2 mm 4 mps 751 mmHg 82%
09:00 +22°C° 0.2 mm 4 mps 751 mmHg 78%
10:00 +24°C° 0.2 mm 3 mps 751 mmHg 75%
11:00 +25°C° 0.2 mm 3 mps 751 mmHg 73%
12:00 +26°C° 0.2 mm 3 mps 751 mmHg 70%
13:00 +26°C° 0 mm 3 mps 751 mmHg 69%
14:00 +27°C° 0 mm 4 mps 751 mmHg 68%
15:00 +27°C° 0 mm 4 mps 750 mmHg 67%
16:00 +26°C° 0.2 mm 5 mps 750 mmHg 71%
17:00 +25°C° 0.2 mm 5 mps 750 mmHg 75%
18:00 +23°C° 0.2 mm 5 mps 750 mmHg 79%
19:00 +22°C° 0 mm 5 mps 750 mmHg 83%
20:00 +21°C° 0 mm 5 mps 750 mmHg 86%
21:00 +19°C° 0 mm 5 mps 751 mmHg 89%
22:00 +19°C° 0.9 mm 5 mps 751 mmHg 90%
23:00 +19°C° 0.9 mm 5 mps 751 mmHg 91%

Tomorrow, 14 August, Friday

Time Temperature Precipitation Wind Pressure Humidity
00:00 +17°C° 0.9 mm 5 mps 751 mmHg 92%
01:00 +17°C° 1.1 mm 5 mps 751 mmHg 92%
02:00 +17°C° 1.1 mm 5 mps 750 mmHg 92%
03:00 +17°C° 1.1 mm 5 mps 750 mmHg 92%
04:00 +17°C° 0.5 mm 5 mps 750 mmHg 91%
05:00 +17°C° 0.5 mm 5 mps 750 mmHg 91%
06:00 +17°C° 0.5 mm 5 mps 750 mmHg 91%
07:00 +19°C° 0.2 mm 5 mps 751 mmHg 88%
08:00 +20°C° 0.2 mm 5 mps 751 mmHg 85%
09:00 +21°C° 0.2 mm 5 mps 751 mmHg 82%
10:00 +22°C° 0 mm 6 mps 751 mmHg 78%
11:00 +23°C° 0 mm 6 mps 751 mmHg 74%
12:00 +24°C° 0 mm 6 mps 751 mmHg 70%
13:00 +24°C° 0.1 mm 6 mps 751 mmHg 67%
14:00 +24°C° 0.1 mm 6 mps 751 mmHg 65%
15:00 +26°C° 0.1 mm 6 mps 751 mmHg 63%
16:00 +23°C° 0.2 mm 5 mps 751 mmHg 66%
17:00 +22°C° 0.2 mm 5 mps 751 mmHg 70%
18:00 +21°C° 0.2 mm 5 mps 751 mmHg 74%
19:00 +20°C° 0 mm 5 mps 751 mmHg 78%
20:00 +19°C° 0 mm 5 mps 752 mmHg 82%
21:00 +17°C° 0 mm 5 mps 752 mmHg 86%
22:00 +16°C° 0 mm 5 mps 752 mmHg 88%
23:00 +16°C° 0 mm 5 mps 752 mmHg 89%

Day after tomorrow, 15 August, Saturday

Time Temperature Precipitation Wind Pressure Humidity
00:00 +16°C° 0 mm 5 mps 752 mmHg 91%
01:00 +16°C° 0 mm 5 mps 752 mmHg 90%
02:00 +16°C° 0 mm 5 mps 752 mmHg 90%
03:00 +16°C° 0 mm 5 mps 752 mmHg 90%
04:00 +15°C° 0 mm 5 mps 752 mmHg 89%
05:00 +15°C° 0 mm 5 mps 753 mmHg 89%
06:00 +15°C° 0 mm 5 mps 753 mmHg 89%
07:00 +16°C° 0 mm 5 mps 753 mmHg 88%
08:00 +16°C° 0 mm 5 mps 753 mmHg 86%
09:00 +18°C° 0 mm 4 mps 753 mmHg 85%
10:00 +19°C° 0 mm 4 mps 753 mmHg 82%
11:00 +19°C° 0 mm 4 mps 753 mmHg 80%
12:00 +20°C° 0 mm 4 mps 753 mmHg 77%
13:00 +21°C° 0 mm 4 mps 753 mmHg 75%
14:00 +21°C° 0 mm 4 mps 753 mmHg 73%
15:00 +22°C° 0 mm 4 mps 753 mmHg 71%
16:00 +21°C° 0 mm 4 mps 752 mmHg 74%
17:00 +20°C° 0 mm 5 mps 752 mmHg 77%
18:00 +19°C° 0 mm 5 mps 752 mmHg 79%
19:00 +17°C° 0.1 mm 5 mps 752 mmHg 83%
20:00 +17°C° 0.1 mm 4 mps 752 mmHg 86%
21:00 +17°C° 0.1 mm 4 mps 752 mmHg 90%
22:00 +17°C° 0.1 mm 4 mps 752 mmHg 90%
23:00 +17°C° 0.1 mm 4 mps 752 mmHg 90%

16 August, Sunday

Time Temperature Precipitation Wind Pressure Humidity
00:00 +17°C° 0.1 mm 4 mps 751 mmHg 91%
01:00 +17°C° 0.2 mm 4 mps 751 mmHg 91%
02:00 +17°C° 0.2 mm 4 mps 751 mmHg 91%
03:00 +17°C° 0.2 mm 4 mps 750 mmHg 92%
04:00 +17°C° 0.6 mm 4 mps 750 mmHg 93%
05:00 +17°C° 0.6 mm 4 mps 750 mmHg 94%
06:00 +17°C° 0.6 mm 3 mps 750 mmHg 95%
07:00 +17°C° 1 mm 4 mps 750 mmHg 94%
08:00 +18°C° 1 mm 4 mps 750 mmHg 94%
09:00 +18°C° 1 mm 4 mps 750 mmHg 94%
10:00 +19°C° 0.4 mm 4 mps 750 mmHg 92%
11:00 +19°C° 0.4 mm 4 mps 749 mmHg 90%
12:00 +20°C° 0.4 mm 4 mps 749 mmHg 88%
13:00 +21°C° 0.6 mm 4 mps 749 mmHg 86%
14:00 +21°C° 0.6 mm 4 mps 749 mmHg 84%
15:00 +22°C° 0.6 mm 3 mps 748 mmHg 82%
16:00 +21°C° 1.7 mm 3 mps 748 mmHg 84%
17:00 +21°C° 1.7 mm 3 mps 748 mmHg 85%
18:00 +21°C° 1.7 mm 3 mps 748 mmHg 86%
19:00 +20°C° 1.2 mm 3 mps 748 mmHg 89%
20:00 +19°C° 1.2 mm 3 mps 748 mmHg 92%
21:00 +18°C° 1.2 mm 3 mps 748 mmHg 95%
22:00 +18°C° 0.2 mm 3 mps 748 mmHg 95%
23:00 +18°C° 0.2 mm 2 mps 747 mmHg 96%

17 August, Monday

Time Temperature Precipitation Wind Pressure Humidity
00:00 +18°C° 0.2 mm 2 mps 747 mmHg 96%
01:00 +17°C° 0 mm 2 mps 747 mmHg 96%
02:00 +18°C° 0 mm 1 mps 747 mmHg 96%
03:00 +18°C° 0 mm 1 mps 747 mmHg 96%
04:00 +18°C° 0.1 mm 1 mps 747 mmHg 96%
05:00 +18°C° 0.1 mm 1 mps 747 mmHg 95%
06:00 +19°C° 0.1 mm 1 mps 747 mmHg 95%
07:00 +19°C° 0 mm 1 mps 747 mmHg 91%
08:00 +20°C° 0 mm 1 mps 747 mmHg 88%
09:00 +21°C° 0 mm 1 mps 747 mmHg 84%
10:00 +21°C° 0.6 mm 1 mps 747 mmHg 81%
11:00 +22°C° 0.6 mm 1 mps 747 mmHg 78%
12:00 +23°C° 0.6 mm 2 mps 747 mmHg 75%
13:00 +21°C° 1.3 mm 2 mps 747 mmHg 75%
14:00 +21°C° 1.3 mm 2 mps 747 mmHg 76%
15:00 +21°C° 1.3 mm 2 mps 747 mmHg 76%
16:00 +21°C° 0.6 mm 3 mps 747 mmHg 79%
17:00 +20°C° 0.6 mm 3 mps 747 mmHg 82%
18:00 +19°C° 0.6 mm 3 mps 747 mmHg 86%
19:00 +18°C° 0.2 mm 3 mps 748 mmHg 88%
20:00 +17°C° 0.2 mm 3 mps 748 mmHg 91%
21:00 +17°C° 0.2 mm 2 mps 748 mmHg 94%
22:00 +16°C° 0.1 mm 2 mps 749 mmHg 95%
23:00 +16°C° 0.1 mm 2 mps 749 mmHg 95%

18 August, Tuesday

Time Temperature Precipitation Wind Pressure Humidity
00:00 +15°C° 0.1 mm 2 mps 749 mmHg 96%
01:00 +15°C° 0 mm 2 mps 749 mmHg 95%
02:00 +15°C° 0 mm 2 mps 749 mmHg 94%
03:00 +15°C° 0 mm 2 mps 749 mmHg 94%
04:00 +15°C° 0 mm 2 mps 749 mmHg 93%
05:00 +15°C° 0 mm 2 mps 749 mmHg 92%
06:00 +15°C° 0 mm 1 mps 750 mmHg 91%
07:00 +15°C° 0.1 mm 2 mps 750 mmHg 88%
08:00 +15°C° 0.1 mm 2 mps 750 mmHg 86%
09:00 +16°C° 0.1 mm 2 mps 751 mmHg 84%
10:00 +17°C° 0 mm 2 mps 751 mmHg 80%
11:00 +19°C° 0 mm 2 mps 751 mmHg 75%
12:00 +20°C° 0 mm 3 mps 751 mmHg 71%
13:00 +21°C° 0.1 mm 3 mps 751 mmHg 69%
14:00 +21°C° 0.1 mm 3 mps 751 mmHg 67%
15:00 +22°C° 0.1 mm 3 mps 751 mmHg 65%
16:00 +22°C° 0 mm 3 mps 751 mmHg 67%
17:00 +21°C° 0 mm 3 mps 751 mmHg 69%
18:00 +21°C° 0 mm 2 mps 751 mmHg 70%
19:00 +20°C° 0 mm 2 mps 752 mmHg 73%
20:00 +18°C° 0 mm 2 mps 752 mmHg 76%
21:00 +16°C° 0 mm 2 mps 753 mmHg 79%
22:00 +16°C° 0 mm 2 mps 753 mmHg 80%
23:00 +15°C° 0 mm 2 mps 753 mmHg 81%
Show more